Tracking 19795 objects as of 17-Jul-2019
HD Live streaming from Space Station
objects crossing your sky now

INMARSAT 4-F2

Track INMARSAT 4-F2 now!
INMARSAT 4-F2 is classified as:


NORAD ID: 28899
Int'l Code: 2005-044A
Perigee: 35,777.5 km
Apogee: 35,809.2 km
Inclination: 2.9 °
Period: 1,436.1 minutes
Semi major axis: 42164 km
RCS: 4.4668 m2 (large)
Launch date: November 8, 2005
Source: International Mobile Satellite Organization (INMARSAT) (IM)
Launch site: SEA LAUNCH (SEAL)

Nearly the size of a double-decker bus; more than 600 channels.
aabbcc
Your satellite tracking list
Your tracking list is empty




NASA's NSSDC Master Catalog

Two Line Element Set (TLE):
1 28899U 05044A   19197.89592706 -.00000002 +00000-0 +00000-0 0  9995
2 28899 002.8631 026.3832 0003749 098.5740 195.8917 01.00273200050176
Source of the keplerian elements: AFSPC